OpenBCM V1.07b12 (Linux)

Packet Radio Mailbox

DB0FHN

[JN59NK Nuernberg]

 Login: GUEST





  
UA9FBV > KEPS     14.02.03 10:04l 122 Lines 3215 Bytes #999 (0) @ AMSAT
BID : ORB03044.M
Read: DB0FHN GUEST
Subj: Orbital Elements  03044.MISC
Path: DB0FHN<DB0ZWI<DB0HST<ON0DXC<WA7V<RZ6HXA<UA9FBV
Sent: 030214/0728Z @:UA9FBV.PRM.RUS.AS #:28212 [Perm] FBB7.00i $:ORB03044.M
From: UA9FBV@UA9FBV.PRM.RUS.AS
To  : KEPS@AMSAT

HR AMSAT ORBITAL ELEMENTS FOR MANNED AND MISCELLANEOUS SATELLITES
FROM WA5QGD FORT WORTH,TX February 13, 2003
SEND SUBSCRIBE/UNSUBSCRIBE TO majordomo@amsat.org ONLY
BID: ORB03044.M
TO ALL RADIO AMATEURS BT

Satellite: HUBBLE
Catalog number: 20580
Epoch time:      03044.15485510
Element set:     326
Inclination:       28.4683 deg
RA of node:        73.2471 deg
Eccentricity:    0.0004329
Arg of perigee:   207.3076 deg
Mean anomaly:     216.3520 deg
Mean motion:   14.97802143 rev/day
Decay rate:      4.025e-05 rev/day^2
Epoch rev:           50182
Checksum:              257

Satellite: UARS
Catalog number: 21701
Epoch time:      03044.10833784
Element set:     823
Inclination:       56.9813 deg
RA of node:        54.1529 deg
Eccentricity:    0.0004748
Arg of perigee:   115.2177 deg
Mean anomaly:     244.9352 deg
Mean motion:   15.02846357 rev/day
Decay rate:       8.91e-06 rev/day^2
Epoch rev:           62489
Checksum:              300

Satellite: PO-34
Catalog number: 25520
Epoch time:      03043.82387660
Element set:    0640
Inclination:      028.4592 deg
RA of node:       262.1240 deg
Eccentricity:    0.0005695
Arg of perigee:   284.6721 deg
Mean anomaly:     075.3214 deg
Mean motion:   15.13855201 rev/day
Decay rate:      3.285e-05 rev/day^2
Epoch rev:           23671
Checksum:              282

Satellite: ISS
Catalog number: 25544
Epoch time:      03044.84137411
Element set:     687
Inclination:       51.6338 deg
RA of node:       279.7129 deg
Eccentricity:    0.0012507
Arg of perigee:   196.8723 deg
Mean anomaly:     262.2275 deg
Mean motion:   15.58289993 rev/day
Decay rate:     2.2645e-04 rev/day^2
Epoch rev:           24176
Checksum:              326

Satellite: WO-39
Catalog number: 26061
Epoch time:      03044.56878454
Element set:     764
Inclination:      100.2088 deg
RA of node:       100.7110 deg
Eccentricity:    0.0034758
Arg of perigee:   293.8946 deg
Mean anomaly:      65.8597 deg
Mean motion:   14.37819455 rev/day
Decay rate:       6.35e-06 rev/day^2
Epoch rev:           15981
Checksum:              334

Satellite: OO-38
Catalog number: 26063
Epoch time:      03044.67618573
Element set:     720
Inclination:      100.2136 deg
RA of node:        98.3687 deg
Eccentricity:    0.0036951
Arg of perigee:   301.1050 deg
Mean anomaly:      58.6501 deg
Mean motion:   14.35479375 rev/day
Decay rate:       1.77e-06 rev/day^2
Epoch rev:           15968
Checksum:              306

Satellite: SO-43
Catalog number: 26929
Epoch time:      03021.14417834
Element set:     715
Inclination:       67.0082 deg
RA of node:        58.0340 deg
Eccentricity:    0.0002739
Arg of perigee:   336.9161 deg
Mean anomaly:      23.5083 deg
Mean motion:   16.51128562 rev/day
Decay rate:  2.3075867e-01 rev/day^2
Epoch rev:            7433
Checksum:              297

Satellite: NO-45
Catalog number: 26932
Epoch time:      03044.53499581
Element set:     395
Inclination:       67.0550 deg
RA of node:       268.2809 deg
Eccentricity:    0.0005098
Arg of perigee:   240.5079 deg
Mean anomaly:     119.5514 deg
Mean motion:   14.29292834 rev/day
Decay rate:       1.41e-06 rev/day^2
Epoch rev:            7165
Checksum:              315



Read previous mail | Read next mail


 17.09.2025 01:10:07lGo back Go up